Showing default

FENGYUN 2H, 43491

Orbit data source: Space-Track

FENGYUN 2H, 43491 is a payload satellite owned by CNMSC (CN) in GEO that was launched on Tue, 05 Jun 2018 UTC via a CHANG ZHENG 3A launch vehicle from the Xichang Space Center, China (XSC). Payload-class satellites include a variety of spacecraft equipped with specific instruments for various scientific and technological missions. These include communications satellites like Starlink; space stations such as the ISS; scientific satellites like the Hubble; Earth observation satellites from companies like Planet Labs, Umbra, and HawkEye 360; GPS; miniature CubeSats for education and research; and military/defense satellites.

Not visible in the next 10 days
Identifier
43491, 2018-050A
Orbit
GEO
Country
Flag of CNCN / PRC
Related business
Manufacturer
SISE
Mission
Operational Civil Weather
Bus & Motor
FY-2, SHANXI AKM
Mass
1,390 kg wet, ~600 kg dry
Launch date (UTC)
2018-06-05 (7 years ago)
Launch vehicle
CHANG ZHENG 3A
Launch site
Xichang Space Center, China (XSC)
Object type
Payload
Rocket body
Debris
Shape & HBR
Cyl, 1.5 m
Radar Cross Section
6.680 m², Medium (>0.1 m² and < 1m²)

Expand to show TLE details & history
Last TLE update: 8 hours ago

TLE from 8 hours ago
0 FENGYUN 2H
1 43491U 18050A   25308.48014668 -.00000115  00000-0  00000+0 0  9997
2 43491   2.4480  81.7456 0002761 151.0567  63.2246  1.00273984 27188
Epoch: 2025-11-04T11:31Z
TLE epoch observation values (Epoch: 2025-11-04T11:31:24.673Z)
Latitude
-1.36608°
Longitude
79.17451°
Altitude
35,780.407 km
Speed
3.075 km/s
True Right ascension
19h 43m 58s
True Declination
-1° 21' 53"
Sunlit
Object was in daylight at epoch
Visualization orbit readout
Latitude
Unknown
Longitude
Unknown
Altitude
Unknown
Speed
Unknown
Apparent Right ascension
Unknown
Apparent Declination
Unknown
Sunlit
N/A
Visualization observer readout
Local Sidereal Time
14:59:08
Azimuth
Unknown
Elevation
Unknown
Doppler factor
Unknown
Orbital elements
Apogee altitude
35,798.688 km
Perigee altitude
35,775.404 km
Semi-major axis
42,165.183 km
Eccentricity
0.00028
Inclination
2.448°
RAAN
81.7456°
Arg. of periapsis
151.0567°
True anomaly
63.25285°
Mean anomaly
63.2246°
Eccentric anomaly
63.23872°
Mean motion
0.25068 °/min
Orbital period
1,436.12 mins
BSTAR
0
Loading maneuver chart data...
Computing Atmospheric mass density...
Loading historical data...
Loading historical data...
Loading historical data...
Loading historical data...
Loading historical data...
Loading historical data...
Loading historical data...
Other satellites on launch #50 in the year 2018 (2018-06-05 UTC)

Documentation

Showing up to 5 results
|